This is the latest recevied weather packets stored in our database for station/object VE1UHF-4. If no packets are shown the sender has not sent any weather packets the latest 10 day(s).
| Time | Temp. | Humidity | Pressure | Rain* | Wind** | Luminosity | Snow |
|---|---|---|---|---|---|---|---|
| 1778073580 | 17.22° C | 85% | 1008.2 hPa | 0 mm | - | - | - |
| 1778071780 | 16.67° C | 85% | 1007.6 hPa | 0 mm | - | - | - |
| 1778070879 | 16.67° C | 84% | 1007.4 hPa | 0 mm | - | - | - |
| 1778069978 | 16.67° C | 84% | 1007.4 hPa | 0 mm | - | - | - |
| 1778069078 | 16.67° C | 84% | 1007.4 hPa | 0 mm | - | - | - |
| 1778068177 | 16.11° C | 85% | 1007.4 hPa | 0 mm | - | - | - |
| 1778067277 | 16.11° C | 84% | 1007.1 hPa | 0 mm | - | - | - |
| 1778066376 | 16.11° C | 84% | 1007.4 hPa | 0 mm | - | - | - |
| 1778065476 | 15.56° C | 84% | 1007.1 hPa | 0 mm | - | - | - |
| 1778063674 | 15.56° C | 83% | 1006.4 hPa | 0 mm | - | - | - |
| 1778062774 | 15° C | 82% | 1006.1 hPa | 0 mm | - | - | - |
| 1778061873 | 15° C | 82% | 1005.9 hPa | 0 mm | - | - | - |
| 1778060975 | 15° C | 81% | 1006.1 hPa | 0 mm | - | - | - |
| 1778060073 | 15° C | 80% | 1006.1 hPa | 0 mm | - | - | - |
| 1778058268 | 15° C | 79% | 1005.8 hPa | 0 mm | - | - | - |
| 1778057368 | 15° C | 80% | 1005.7 hPa | 0 mm | - | - | - |
| 1778056467 | 15° C | 78% | 1005.6 hPa | 0 mm | - | - | - |
| 1778055567 | 15° C | 78% | 1005.6 hPa | 0 mm | - | - | - |
| 1778054666 | 15° C | 77% | 1005.4 hPa | 0 mm | - | - | - |
| 1778053765 | 15° C | 77% | 1005.7 hPa | 0 mm | - | - | - |
| 1778052865 | 15° C | 77% | 1005.7 hPa | 0 mm | - | - | - |
| 1778051965 | 15° C | 77% | 1005.5 hPa | 0 mm | - | - | - |
| 1778051064 | 15° C | 76% | 1005.7 hPa | 0 mm | - | - | - |
| 1778050163 | 15.56° C | 76% | 1005.6 hPa | 0 mm | - | - | - |
| 1778049263 | 15.56° C | 76% | 1005.3 hPa | 0 mm | - | - | - |
* Rain since midnight (hover to see other rain measurements)
** Current wind speed in m/s (hover to see current wind gust speed)